Location: ??
(35.1714°N, 128.2806°E)
Time: 14:50:19
(UTC+00:00)

SL-27 R/B - Pass Details

Date: 29 October 2020
Orbit: 420 x 469 km, 74.7° (Epoch: 01 December)

Event Time Altitude Azimuth Distance (km) Brightness Sun altitude
Rises 20:20:44 0° 175° (S) 2,479 6.3 -18.0°
Reaches altitude 10° 20:22:57 10° 165° (SSE) 1,614 5.4 -17.5°
Maximum altitude 20:26:08 32° 101° (ESE) 831 4.5 -16.9°
Drops below altitude 10° 20:29:22 10° 37° (NE) 1,633 5.6 -16.2°
Sets 20:31:37 0° 28° (NNE) 2,515 6.5 -15.8°
